Location: Azul
(36.7830°S, 59.8500°W)
Time: 02:08:47
(UTC-03:00)

DOVE 4 - Visible Passes

Search period start: 23 October 2021 00:00
Search period end: 02 November 2021 00:00
Orbit: 587 x 801 km, 97.8° (Epoch: 22 October)

Date Brightness Start Highest point End Pass type
(mag) Time Alt. Az. Time Alt. Az. Time Alt. Az.
23 Oct ? 00:33:44 18° S 00:33:44 18° S 00:35:02 10° S visible
23 Oct ? 23:35:35 15° SSE 23:35:35 15° SSE 23:36:46 10° SSE visible
24 Oct ? 01:14:17 13° SSW 01:14:17 13° SSW 01:14:59 10° SSW visible
25 Oct ? 00:16:09 20° S 00:16:09 20° S 00:17:46 10° S visible
25 Oct ? 23:18:00 13° SE 23:18:00 13° SE 23:18:51 10° SSE visible
26 Oct ? 00:56:42 18° SSW 00:56:42 18° SSW 00:58:00 10° SSW visible
26 Oct ? 23:58:34 20° SSE 23:58:34 20° SSE 00:00:22 10° S visible
27 Oct ? 01:37:16 11° SW 01:37:16 11° SW 01:37:26 10° SW visible
28 Oct ? 00:39:07 21° SSW 00:39:07 21° SSW 00:40:54 10° SSW visible
28 Oct ? 23:40:59 18° SSE 23:40:59 18° SSE 23:42:49 10° SSE visible
29 Oct ? 01:19:41 15° SW 01:19:41 15° SW 01:20:42 10° SSW visible
30 Oct ? 00:21:33 24° S 00:21:33 24° S 00:23:38 10° S visible
30 Oct ? 23:23:24 15° SE 23:23:24 15° SE 23:25:01 10° SSE visible
31 Oct ? 01:02:07 20° SSW 01:02:07 20° SSW 01:03:46 10° SSW visible
01 Nov ? 00:03:59 24° SSE 00:03:59 24° SSE 00:06:16 10° S visible
01 Nov ? 01:42:41 11° SW 01:42:41 11° SW 01:42:59 10° SW visible
01 Nov ? 23:05:50 12° SE 23:05:50 12° SE 23:06:46 10° SE visible
